Zurück zum Katalog

STARLINK-6330

AktivKommunikationVLEO
NORAD 57239·PAYLOAD·🇺🇸 United States

Gestartet Jul 7, 2023 von Vandenberg Space Force Base

Loading…

Nächste Überflüge (nächste 24 Stunden)

TLE

AktuellSource: CelesTrak SupGP

Epoche: Sep 14, 2026, 21:10 UTC

1 57239C 23094X   26257.88243056  .00051043  00000+0  18486-2 0  2570
2 57239  43.0020  41.9851 0001469 269.2744  74.6627 15.27557099    12

Verfolge STARLINK-6330 in Echtzeit mit AllMySat

Download on the App Store